Other Public Products
Issued by NWS Grand Forks, ND

Home | Current Version | Previous Version | Graphics & Text | Print | Product List | Glossary On
Versions: 1 2 3 4 5 6 7 8 9 10 11 12 13 14 15 16 17 18 19 20 21 22 23 24 25 26 27 28 29 30 31 32 33 34 35 36 37 38 39 40 41 42 43 44 45 46 47 48 49 50
000
FPUS83 KFGF 230531
OPUFGF
PRAIRIE TO PINES WEATHER ROUNDUP
NATIONAL WEATHER SERVICE EASTERN NORTH DAKOTA/GRAND FORKS ND
1100 PM CST WED NOV 22 2017

 **SATELLITE DATA USED TO AUGMENT SKY COVER AT AUTOMATED STATIONS**
 *****  WEATHER ACROSS EASTERN NORTH DAKOTA  *****

CITY           SKY/WX    TMP DP  RH WIND       PRES   REMARKS
GRAND FORKS    FAIR      20  17  88 CALM      29.95F
GRND FORKS AFB FAIR      19  16  91 W3        29.95S
GRND FORKS NWS   N/A     21 N/A N/A MISG        N/A
BUXTON           N/A    N/A N/A N/A CALM        N/A
DEVILS LAKE    CLOUDY    28  25  86 SW8       29.95S WCI  20
FARGO          FAIR      25  17  72 CALM      29.94F
WAHPETON ARPT  NOT AVBL
$$

 *****  WEATHER ACROSS CENTRAL AND WESTERN NORTH DAKOTA  *****

CITY           SKY/WX    TMP DP  RH WIND       PRES   REMARKS
JAMESTOWN      MOCLDY    27  22  81 NW6       29.94S WCI  20
BISMARCK       FAIR      30  24  78 SW3       29.99F
MINOT          FAIR      24  20  84 SW3       29.94F
MINOT AFB      FAIR      21  19  91 SW5       29.93F WCI  15
GARRISON         N/A     24  22  91 CALM      29.95F
WILLISTON      FAIR      23  20  88 CALM      29.94F
DICKINSON      FAIR      31  29  92 S6        29.94F
HETTINGER      FAIR      33  31  92 NW3       30.00F
$$

 *****  OTHER OBSERVATIONS NORTHEAST NORTH DAKOTA  *****

CITY           SKY/WX    TMP DP  RH WIND       PRES   REMARKS
WALHALLA       FAIR      18  18 100 NW5       29.94S WCI  11
LANGDON        FAIR      18  18 100 W6        29.92S WCI   9
CAVALIER       FAIR      18  16  93 CALM      29.94F
GRAFTON        FAIR      19  19 100 NW5       29.97F WCI  13
CANDO          CLOUDY    25  25 100 CALM      29.95F
FORT TOTTEN      N/A     27  24  89 W3        29.95S
ROLLA          FAIR      23  23 100 W13       29.91F WCI  11
RUGBY          CLOUDY    27  21  80 W7        29.95S WCI  19
 ***** THE ABOVE OBSERVATIONS ARE NON NWS ARE NOT QUALITY
        CONTROLLED AND MAY MIS-REPORT RAIN FOR SNOW...
$$

 *****  OTHER OBSERVATIONS SOUTHEAST NORTH DAKOTA *****

CITY           SKY/WX    TMP DP  RH WIND       PRES   REMARKS
COOPERSTOWN    CLOUDY    28  25  86 NW10      29.95R WCI  19
VALLEY CITY    FAIR      23  23 100 NW9       29.95F WCI  13
OAKES            N/A     27  21  80 NW9       29.96S WCI  17
GWINNER          N/A     28  19  69 NW12      29.94S WCI  18
SHEYENNE NWR     N/A     24  16  72 NW7       29.95S WCI  16
BUFFALO          N/A     22  16  79 W6          N/A  WCI  14
WYNDMERE       NOT AVBL
 ***** THE ABOVE OBSERVATIONS ARE NON NWS ARE NOT QUALITY
       CONTROLLED AND MAY MIS-REPORT RAIN FOR SNOW...
$$

  *****  WEATHER ACROSS NORTHERN MINNESOTA  *****

CITY           SKY/WX    TMP DP  RH WIND       PRES   REMARKS
FLAG ISLAND    CLOUDY    19  18  93 SW7       29.91F WCI  10
WARROAD        CLOUDY    18  14  86 SW3       29.93F
ROSEAU         FAIR      16  12  86 CALM      29.93F
HALLOCK        FAIR      19  18  93 CALM      29.94F
THF RVR FALLS  FAIR      19  18  93 CALM      29.94F
HALSTAD          N/A     21  14  75 N5          N/A  WCI  14
FOSSTON        MOCLDY    19  16  86 CALM      29.94S
BAUDETTE       CLOUDY    19  17  92 CALM      29.92F
WASKISH        CLOUDY    21  18  86 CALM      29.93F
CROOKSTON      FAIR      19  18  93 CALM      29.96S
$$
  *****  WEATHER ACROSS CENTRAL AND WEST MINNESOTA  *****

CITY           SKY/WX    TMP DP  RH WIND       PRES   REMARKS
BEMIDJI        CLOUDY    20  17  90 CALM      29.93S
PARK RAPIDS    MOCLDY    22  16  78 CALM      29.92S
WADENA         FAIR      18  12  79 CALM      29.91F
DETROIT LAKES  FAIR      23  18  80 NE3       29.93S
MOORHEAD       FAIR      21  16  79 CALM      29.96R
FERGUS FALLS   FAIR      21  16  79 E3        29.95S
ELBOW LAKE     FAIR      22  19  87 CALM      29.92S FOG
MORRIS MN      FAIR      21  16  79 CALM      29.90S
STAPLES          N/A     21  16  79 CALM      29.92F
WHEATON        FAIR      21  18  86 W5        29.95R WCI  15
$$
  *****  WEATHER ELSEWHERE ACROSS MINNESOTA  *****

CITY           SKY/WX    TMP DP  RH WIND       PRES   REMARKS
DULUTH         CLOUDY    21  19  92 SW7       29.94S WCI  12
INTRNTL FALLS  CLOUDY    19  15  84 CALM      29.93S
ELY            CLOUDY    19  16  86 SW5       29.92F WCI  13
CLOQUET        CLOUDY    21  19  93 CALM      29.94F
BRAINERD       CLOUDY    23  17  78 CALM      29.94S
HIBBING        CLOUDY    19  17  92 CALM      29.94F
ALEXANDRIA     FAIR      22  16  78 CALM      29.91F
SAINT CLOUD    FAIR      26  16  65 E3        29.93F
MINNEAPOLIS    MOCLDY    32  18  56 S8        29.96F WCI  25
$$

  *****  WEATHER ACROSS SOUTH DAKOTA  *****

CITY           SKY/WX    TMP DP  RH WIND       PRES   REMARKS
SIOUX FALLS    FAIR      31  21  66 SW3       29.93R
BROOKINGS      FAIR      24  20  84 CALM      29.93R
WATERTOWN      FAIR      24  19  81 CALM      29.91S
HURON          FAIR      29  25  85 NW8       29.97R WCI  21
SISSETON         N/A     34  25  69 NW14      29.92R WCI  25
ABERDEEN       FAIR      27  23  85 NW8       29.99R WCI  19
MITCHELL       FAIR      43  33  68 NW14      29.96R
PIERRE         FAIR      42  38  85 NW7       30.00R
MOBRIDGE       FAIR      34  30  85 CALM      29.97R
RAPID CITY     FAIR      45  35  68 W3        30.08S
$$

  *****  SOME WEATHER IN NEARBY STATES *****

CITY           SKY/WX    TMP DP  RH WIND       PRES   REMARKS
GLASGOW MT     FAIR      36  34  92 SE10      29.90F
GREAT FALLS MT FAIR      57  40  52 SW23      29.99F
CHEYENNE WY    FAIR      48  38  68 NW7       30.28S
SCOTTSBLUFF NE FAIR      42  36  79 NW6       30.18F
OMAHA NE       FAIR      32  20  61 SE12      30.03F WCI  23
DES MOINES IA  MOCLDY    35  16  45 S12G21    30.05F
DAVENPORT IA   CLOUDY    33  18  53 S9        30.17F
CHICAGO IL     CLOUDY    32  18  56 SW8       30.18S WCI  25
EAU CLAIRE WI  CLOUDY    28  18  66 SE5       30.02F WCI  23
LA CROSSE WI   CLOUDY    34  18  52 S10       30.06F
$$

  *****  SOME NATIONAL WEATHER *****

CITY           SKY/WX    TMP DP  RH WIND       PRES   REMARKS
LA GUARDIA NY  FAIR      37  21  52 NW14G25   30.09R
RALEIGH NC     MOCLDY    43  26  51 N5        30.17S
ATLANTA GA     MOCLDY    44  32  62 NW9       30.09S
NEW ORLEANS LA FAIR      54  42  64 N8        30.14S
OKLAHOMA CITY  FAIR      34  21  59 S7        30.22F
ALBUQUERQUE NM FAIR      48  27  44 CALM      30.35S
SALT LAKE CITY MOCLDY    49  42  77 SE7       30.36F
LOS ANGELES CA FAIR      72  52  49 CALM      30.02S
BOISE ID       FAIR      49  48  97 SE6       30.20F FOG
SEATTLE WA     LGT RAIN  61  57  87 S12       29.86R
$$

*** WEATHER ACROSS MANITOBA...SASKATCHEWAN AND ONTARIO ***
                ***ONTARIO***

CITY           SKY/WX    TMP DP  RH WIND       PRES   REMARKS
GERALDTON      CLOUDY    19  14  79 SW15      29.81F WCI   5
THUNDER BAY    CLOUDY    23  18  80 W5        29.93S WCI  17
SIOUX LOOKOUT  FLURRIES  19  16  86 W10G17    29.83F WCI   8
TORONTO        MOCLDY    30  19  64 W13       30.16F WCI  20
BIG TROUT LK   FLURRIES  12   9  85 W12       29.66F WCI  -2
PICKLE LAKE    NOT AVBL
DRYDEN         CLOUDY    19  18  93 W12       29.84F WCI   7
KENORA         CLOUDY    19  18  93 W10G17    29.87F WCI   8
$$
                *** MANITOBA***

CITY           SKY/WX    TMP DP  RH WIND       PRES   REMARKS
BRANDON        FLURRIES  18  12  79 W10       29.91F WCI   6
DAUPHIN        CLOUDY    23  14  68 W22G28    29.89F WCI   8
ISLAND LAKE    FLURRIES   7   1  78 W14G21    29.79S WCI -10
PILOT MOUND      N/A     14  10  85 W6          N/A  WCI   5
THE PAS        CLEAR      3  -2  78 NW6       29.89S WCI  -8
THOMPSON       MOCLDY     5  -2  72 NW7       29.80R WCI  -7
WINNIPEG       MOCLDY    14  12  92 SW8       29.93F WCI   3
LYNN LAKE      CLOUDY     1  -4  78 NW6       29.84R WCI -10
CHURCHILL      CRYSTALS   0  -6  78 NW22G29   29.69  WCI -23
GILLAM         FLURRIES   9   3  78 NW12      29.73  WCI  -6
$$
                ***SASKATCHEWAN***

CITY           SKY/WX    TMP DP  RH WIND       PRES   REMARKS
ESTEVAN        CLEAR     19  18  93 SW8       29.91F FOG     WCI   9
KINDERSLEY     PTCLDY    18  14  86 SW6       29.72F WCI   9
LLOYDMINSTER   PTCLDY    14  12  92 SE10      29.68F WCI   1
PRINCE ALBERT  FLURRIES  18  10  73 SW5       29.86F WCI  11
REGINA         MOCLDY    19  18  93 SE8       29.87F WCI   9
YORKTON        CLOUDY    23  19  86 SW9       29.87F W


USA.gov is the U.S. government's official web portal to all federal, state and local government web resources and services.